Regional Weather Roundup
Issued by NWS Raleigh/Durham, NC

Home | Current Version | Previous Version | Text Only | Print | Product List | Glossary On
Versions: 1 2 3 4 5 6 7 8 9 10 11 12 13 14 15 16 17 18 19 20 21 22 23 24 25 26 27 28 29 30 31 32 33 34 35 36 37 38 39 40 41 42 43 44 45 46 47 48 49 50
000
ASUS42 KRAH 230310
RWRRAH
NORTH CAROLINA WEATHER ROUNDUP
NATIONAL WEATHER SERVICE RALEIGH NC
1100 PM EDT FRI AUG 22 2014

NOTE: "FAIR" INDICATES FEW OR NO CLOUDS BELOW 12,000 FEET WITH NO
SIGNIFICANT WEATHER AND/OR OBSTRUCTIONS TO VISIBILITY.

NCZ001-053-055-056-065-067-230400-
WESTERN NORTH CAROLINA

CITY           SKY/WX    TMP DP  RH WIND       PRES   REMARKS
ASHEVILLE      PTCLDY    73  67  81 NW5       30.11R
JEFFERSON      CLOUDY    70  67  92 W6        30.15F
MORGANTON      MOCLDY    76  69  78 NW5       30.07F
HICKORY        LGT RAIN  76  70  82 NW7       30.02S
RUTHERFORDTON  PTCLDY    77  73  89 CALM      30.03S
MOUNT AIRY     MOCLDY    74  71  91 CALM      30.04S
BOONE          CLOUDY    68  67  96 CALM      30.16F
$$

NCZ021-022-025-041-071-084-088-230400-
CENTRAL NORTH CAROLINA

CITY           SKY/WX    TMP DP  RH WIND       PRES   REMARKS
CHARLOTTE      MOCLDY    83  71  67 W3        29.99S
GREENSBORO     CLOUDY    81  71  71 N3        29.99S
WINSTON-SALEM  MOCLDY    80  72  76 NW6       30.01S
RALEIGH-DURHAM MOCLDY    79  73  82 CALM      29.97S
FORT BRAGG     PTCLDY    79  68  69 S5        29.97R
FAYETTEVILLE   PTCLDY    77  70  79 S3        29.96S
BURLINGTON     CLOUDY    79  73  82 CALM      29.98R
LAURINBURG     PTCLDY    79  72  79 E3        29.97R
$$

NCZ011-015-027-028-043-044-047-080-103-230400-
NORTHEASTERN NORTH CAROLINA

CITY           SKY/WX    TMP DP  RH WIND       PRES   REMARKS
ROCKY MT-WILSO MOCLDY    76  74  93 CALM      29.97R
GREENVILLE     MOCLDY    77  72  83 CALM      29.99R
WASHINGTON     PTCLDY    76  72  86 CALM      29.97S
ELIZABETH CITY PTCLDY    76  71  85 N5        29.96R
MANTEO         PTCLDY    75  73  94 CALM      29.96R
CAPE HATTERAS  PTCLDY    76  73  91 NE5       29.94F
$$

NCZ078-087-090-091-093-098-101-230400-
SOUTHEASTERN NORTH CAROLINA

CITY           SKY/WX    TMP DP  RH WIND       PRES   REMARKS
LUMBERTON      PTCLDY    79  72  79 SE6       29.96R
GOLDSBORO      PTCLDY    75  75  98 SW3       29.95R
KINSTON        PTCLDY    76  73  91 CALM      29.97R
KENANSVILLE    MOCLDY    71  70  95 CALM      29.98R
NEW BERN       PTCLDY    80  73  79 N5        29.97R
CHERRY POINT   MOCLDY    82  74  76 NE3       29.96R
BEAUFORT       CLOUDY    83  75  77 NE6       29.95R
JACKSONVILLE   CLOUDY    79  72  79 NW5       29.96R
WILMINGTON     MOCLDY    74  72  93 SW3       29.96S
$$



USA.gov is the U.S. government's official web portal to all federal, state and local government web resources and services.